User: anonymous   Login
Location: *
(40.7765°S, 106.5327°E)
Time: 10:37:02
(UTC+00:00)
Language:

Cosmos 1331 Rocket - Orbit

View from above orbital plane
View from above orbital plane
View from above satellite
View from above satellite

Ground track
Ground track

The orbit data is extracted from the following two-line orbital elements,

1 13028U 82001B   22227.25507904  .00000105  00000-0  42770-4 0  9992
2 13028  74.0419 155.6967 0018868 133.9054 226.3662 14.38537288127901
Epoch (UTC): 15 August 2022 06:07:18
Eccentricity: 0.0018868
inclination: 74.0419°
perigee height: 750 km
apogee height: 777 km
right ascension of ascending node: 155.6967°
argument of perigee: 133.9054°
revolutions per day: 14.38537288
mean anomaly at epoch: 226.3662°
orbit number at epoch: 12790

The dashed part of the orbit path shows where the satellite is in the earth's shadow,  

DLR